Wind_Speed
3 2 2 1 1 2 2 3 3 3 3 4 4 4 4 4 5 5 5 4 4 4 4 3 3 3 3 3 2 3 3 3 3 3 3 2 3 3 4 4 4 4 3
2 1 1 0 1 2 2 2 3 3 4 4 4 4 4 4 4 5 5 4 4 4 4 4 3 3 3 3 2 2 3 3 3 3 3 3 3 3 4 5 5 5 4
2 1 2 1 0 1 2 2 3 4 4 4 3 4 4 4 4 5 5 5 5 4 4 4 4 4 4 3 3 3 3 3 4 4 3 3 3 3 4 4 5 5 5
2 2 2 2 1 1 1 2 2 3 3 3 3 4 4 4 4 5 5 5 5 4 4 5 5 4 4 3 4 4 3 4 4 4 4 3 3 3 3 4 4 5 5
2 3 3 2 1 1 1 1 1 2 2 2 3 3 4 3 4 5 5 4 4 4 4 5 5 4 3 4 4 4 4 4 4 4 4 4 4 3 4 4 4 5 6
4 4 4 3 2 2 1 0 1 2 2 2 3 3 3 4 4 5 5 4 4 4 4 5 4 3 3 4 4 5 5 4 4 4 4 4 4 4 4 5 5 5 6
4 4 3 2 2 2 1 0 0 1 2 3 2 3 3 4 4 4 4 4 4 4 5 5 4 3 3 3 4 4 5 5 5 5 5 5 5 5 6 6 6 6 6
4 4 3 2 2 2 1 1 1 1 2 2 2 2 2 3 4 3 3 3 4 4 5 4 4 4 3 3 4 4 5 5 5 5 6 6 6 6 7 7 7 7 7
5 4 4 4 3 3 3 3 2 2 2 2 2 1 2 3 3 3 3 3 3 3 4 4 4 4 3 4 4 4 4 5 5 5 6 7 7 7 7 8 8 8 8
5 5 5 4 4 3 3 3 3 2 2 2 2 1 2 2 3 3 3 3 3 4 4 4 4 4 3 3 4 4 4 4 5 5 6 6 7 7 7 8 8 8 9
5 5 5 5 4 4 3 3 3 3 3 2 2 2 2 2 2 2 3 3 3 4 4 4 4 4 4 3 3 4 4 4 4 5 5 6 6 7 7 8 8 8 9
5 5 6 5 5 4 4 4 4 4 3 3 3 2 3 3 3 3 2 3 3 4 4 4 4 4 4 4 3 4 4 4 4 4 4 5 6 6 7 7 8 9 9
6 6 6 5 5 5 5 5 5 4 4 3 3 3 3 3 3 3 3 3 3 3 3 4 4 4 4 4 4 4 4 4 4 3 4 4 5 5 6 7 8 9 9
7 6 6 6 6 5 5 5 5 5 4 4 3 3 3 3 4 3 3 3 3 3 3 3 4 4 4 4 4 4 4 4 3 3 3 4 4 5 6 7 8 8 9
8 8 7 6 6 5 5 5 5 5 5 4 4 3 3 3 3 3 2 3 3 3 2 3 3 3 4 4 4 4 4 4 3 3 3 3 4 5 6 7 7 8 9
9 8 8 6 6 5 5 5 5 5 5 5 4 3 3 3 3 3 2 3 3 2 2 3 3 3 4 4 4 4 4 4 3 4 3 3 4 5 7 7 8 8 9
9 9 8 7 7 6 5 5 5 5 5 5 4 4 3 3 3 3 3 3 3 3 3 3 4 4 4 4 3 4 3 3 3 4 3 3 4 5 6 7 7 8 9
9 8 8 7 6 6 5 5 5 5 4 4 4 3 3 3 3 3 3 3 3 3 3 3 4 4 4 4 3 3 3 4 4 4 4 4 5 5 6 6 7 7 8
8 8 8 7 6 6 5 5 5 5 4 4 4 3 3 3 3 3 3 3 3 3 3 3 3 3 3 3 3 3 4 4 4 4 4 4 5 6 6 7 7 7 8
9 8 8 7 7 6 6 6 6 6 5 4 4 3 3 3 3 3 3 3 3 3 3 3 3 3 3 3 3 3 3 4 4 4 4 4 5 6 6 6 6 7 7
9 8 8 7 7 6 6 6 6 6 6 5 4 4 4 3 3 3 3 3 3 3 3 3 3 3 3 3 3 3 4 4 4 4 4 5 5 5 6 6 7 7 7
9 9 8 8 7 7 6 6 7 7 7 6 5 5 5 4 4 4 4 4 4 4 3 4 4 3 3 3 3 4 4 5 5 5 5 5 5 6 6 6 7 7 7
10 10 9 9 9 8 8 7 7 7 7 7 6 6 5 5 4 4 5 5 5 4 4 4 4 4 4 4 4 4 4 4 5 5 5 5 6 6 6 7 7 8 7
11 10 10 10 10 9 9 8 8 8 7 7 7 6 6 5 5 5 5 5 5 5 5 5 4 4 4 5 5 5 5 5 6 6 6 6 6 7 7 7 8 8 7
12 11 10 10 10 10 9 9 9 9 8 7 7 7 7 6 6 5 6 6 6 6 6 6 5 5 5 5 5 6 6 6 6 7 7 6 7 7 8 9 9 10 9
13 12 12 11 11 11 10 9 9 9 9 8 8 7 7 7 7 6 6 6 6 6 6 6 6 6 6 5 6 6 6 7 7 7 7 7 8 8 9 9 10 11 11
Wind_Direction
118 116 94 73 44 46 51 44 40 38 27 21 17 7 358 350 347 343 341 337 333 338 337 317 308 312 309 301 283 265 256 257 261 248 237 234 225 223 221 223 220 218 212
134 145 154 77 5 29 54 51 44 32 22 13 9 360 354 348 343 342 334 330 326 330 337 324 308 304 309 315 296 276 265 257 259 252 241 240 245 240 224 221 217 221 221
150 176 192 177 357 355 14 25 33 34 24 15 20 17 8 356 342 336 324 325 324 324 324 318 304 298 301 302 296 291 284 263 254 252 248 252 257 243 220 218 217 222 220
188 203 205 207 261 333 9 37 36 31 23 11 10 15 9 6 351 338 326 326 326 327 322 316 305 295 292 294 293 289 284 272 253 249 250 252 251 220 210 222 222 225 225
210 219 218 218 239 322 325 25 38 16 14 12 3 359 354 349 341 337 331 328 328 334 332 330 315 299 293 292 290 285 284 275 257 252 252 249 244 231 227 229 226 230 230
219 225 232 239 245 266 261 230 23 17 12 8 3 359 355 346 343 340 333 332 332 340 338 340 335 313 300 293 294 288 284 282 271 264 260 255 249 240 234 235 239 237 234
218 229 237 243 244 251 226 204 5 7 357 352 347 348 348 347 345 342 342 345 345 343 336 336 342 331 309 301 298 292 292 288 275 266 261 259 255 245 242 240 241 240 238
218 226 223 221 236 237 230 221 260 306 336 336 341 341 344 343 347 345 347 347 347 348 341 337 337 331 321 304 303 301 301 295 282 265 262 258 252 248 247 243 244 245 244
215 219 224 224 231 223 227 239 253 263 299 338 328 348 342 330 333 337 339 346 349 346 340 339 334 327 319 309 305 305 304 296 284 267 263 260 256 253 249 246 245 246 245
218 222 223 226 223 228 235 242 241 247 280 321 328 325 346 342 332 330 335 340 343 339 334 334 333 331 323 321 313 311 306 296 285 275 267 261 258 254 249 246 246 245 246
219 223 221 220 217 227 234 236 238 244 267 285 304 325 337 333 320 319 330 339 344 340 336 335 337 337 329 324 319 319 311 296 289 281 273 266 261 256 252 247 246 245 249
219 223 224 219 221 222 223 230 237 248 263 268 278 295 311 316 310 311 322 329 339 342 342 342 344 341 332 324 315 311 314 313 302 289 278 271 263 253 251 248 247 249 250
223 224 219 220 219 220 230 236 235 247 255 258 269 281 290 294 298 304 318 332 336 338 335 336 343 342 335 329 316 312 318 315 307 297 285 276 268 261 255 252 249 249 249
225 228 229 228 225 224 237 240 240 248 248 248 258 267 279 288 294 297 306 320 331 341 340 335 339 343 341 339 333 326 324 324 319 300 283 279 272 267 260 258 254 251 250
231 230 229 228 225 225 236 245 248 248 249 249 255 262 276 282 284 286 295 311 324 333 334 343 344 348 348 348 342 333 330 331 330 319 302 289 278 273 268 263 259 257 255
229 224 224 221 219 223 234 244 248 245 243 241 249 258 268 280 285 289 285 289 303 319 331 342 346 342 345 343 338 337 339 333 327 317 314 299 288 282 276 268 263 259 258
222 222 220 219 220 226 234 240 242 237 236 243 247 255 269 284 287 286 288 288 300 310 319 329 340 344 342 341 340 338 334 328 322 324 317 298 294 291 286 278 272 265 261
221 221 223 222 220 224 231 236 233 226 229 240 246 259 268 275 275 274 282 291 304 314 320 325 330 329 334 339 342 344 338 335 336 337 329 314 307 304 299 292 287 275 267
220 224 226 225 219 218 225 227 228 222 228 237 244 252 258 264 266 271 283 297 311 321 326 331 333 333 335 336 344 349 349 350 341 341 334 322 314 311 307 301 293 284 279
221 221 224 222 218 223 227 224 224 229 232 235 243 250 255 261 266 274 285 297 307 311 317 325 332 335 339 343 348 347 350 355 353 345 336 330 324 321 316 309 303 296 286
220 222 223 224 224 230 231 228 230 233 232 233 238 249 252 258 269 276 288 294 298 301 310 316 321 324 328 335 336 336 337 342 345 343 336 332 329 328 326 319 311 302 292
221 223 227 227 229 231 233 235 233 232 235 235 237 245 249 259 267 277 284 288 291 294 300 303 306 311 312 317 323 325 327 325 328 334 335 331 326 325 329 329 323 314 298
225 227 228 229 229 230 232 234 235 235 239 238 239 243 250 262 271 279 283 282 280 284 291 297 297 302 305 308 314 314 316 316 322 325 326 326 325 323 327 331 327 315 306
225 226 227 229 230 230 232 234 238 243 243 243 245 246 253 259 266 276 280 279 278 281 287 292 292 292 294 302 306 309 308 306 309 313 317 323 323 322 323 326 326 317 312
227 228 229 230 230 231 235 239 241 243 244 246 249 253 254 254 260 269 277 279 279 281 284 288 291 291 291 295 300 305 307 306 309 309 311 314 317 317 317 321 324 321 317
230 230 230 230 231 234 236 240 243 243 245 248 250 254 257 254 260 268 272 277 275 275 278 284 288 296 296 298 301 305 306 308 311 310 311 313 313 314 314 317 319 320 319
Height
5883 5883 5883 5884 5884 5884 5884 5884 5884 5884 5883 5883 5883 5883 5882 5882 5882 5883 5883 5882 5882 5882 5882 5882 5882 5882 5883 5883 5883 5883 5883 5884 5884 5884 5884 5885 5885 5885 5886 5887 5888 5888 5889
5883 5883 5884 5884 5884 5884 5884 5884 5884 5884 5883 5883 5883 5882 5882 5882 5883 5883 5882 5882 5882 5882 5882 5882 5882 5882 5882 5882 5882 5882 5883 5883 5883 5884 5884 5884 5884 5884 5884 5886 5887 5888 5888
5883 5884 5884 5884 5884 5884 5884 5884 5884 5884 5884 5883 5883 5883 5883 5882 5882 5882 5882 5882 5882 5881 5881 5881 5881 5881 5881 5882 5882 5882 5882 5882 5882 5883 5883 5883 5883 5882 5883 5885 5886 5887 5888
5883 5884 5884 5884 5884 5884 5884 5884 5884 5884 5884 5884 5883 5883 5883 5883 5883 5882 5882 5881 5881 5881 5881 5880 5880 5881 5881 5881 5881 5881 5881 5881 5881 5882 5882 5883 5883 5883 5884 5885 5886 5887 5887
5883 5883 5884 5884 5884 5884 5884 5884 5884 5884 5884 5884 5883 5883 5883 5883 5882 5882 5882 5881 5881 5880 5880 5880 5880 5880 5880 5880 5880 5880 5880 5881 5881 5881 5882 5882 5883 5883 5884 5884 5885 5886 5887
5883 5883 5883 5883 5884 5884 5884 5884 5884 5884 5884 5884 5884 5883 5883 5883 5882 5882 5882 5881 5880 5880 5879 5879 5879 5879 5879 5879 5879 5879 5880 5880 5880 5880 5881 5881 5882 5882 5883 5884 5884 5885 5886
5882 5883 5883 5883 5883 5883 5883 5884 5884 5884 5884 5884 5884 5883 5883 5883 5883 5882 5881 5881 5880 5880 5879 5879 5878 5878 5878 5878 5878 5878 5879 5879 5879 5880 5880 5881 5881 5882 5882 5883 5883 5884 5885
5882 5882 5883 5883 5883 5883 5883 5883 5884 5884 5884 5884 5884 5883 5883 5883 5882 5882 5881 5881 5880 5879 5879 5879 5878 5878 5878 5878 5878 5878 5878 5878 5878 5878 5879 5879 5880 5880 5881 5881 5882 5883 5883
5881 5881 5882 5882 5883 5883 5883 5883 5883 5884 5884 5883 5883 5883 5883 5882 5882 5882 5881 5881 5880 5879 5879 5878 5878 5877 5877 5877 5877 5877 5877 5877 5877 5877 5877 5878 5878 5879 5879 5880 5881 5881 5882
5880 5880 5881 5881 5882 5882 5882 5883 5883 5883 5883 5883 5883 5882 5882 5882 5882 5881 5881 5880 5880 5879 5878 5878 5877 5877 5877 5876 5876 5876 5876 5876 5875 5875 5876 5876 5876 5877 5878 5878 5879 5879 5880
5879 5880 5880 5881 5881 5881 5882 5882 5882 5882 5883 5883 5883 5882 5882 5881 5881 5881 5881 5880 5880 5879 5878 5878 5877 5877 5876 5876 5876 5875 5875 5874 5874 5874 5874 5874 5875 5875 5876 5876 5877 5878 5878
5878 5879 5879 5880 5880 5880 5881 5881 5881 5882 5882 5882 5882 5882 5881 5881 5881 5881 5880 5880 5879 5879 5878 5877 5877 5876 5876 5875 5875 5874 5874 5873 5873 5873 5873 5873 5873 5874 5874 5875 5875 5876 5877
5877 5877 5878 5879 5879 5880 5880 5880 5881 5881 5881 5881 5881 5881 5881 5881 5881 5880 5880 5880 5879 5879 5878 5877 5877 5876 5875 5875 5874 5874 5873 5873 5872 5872 5872 5872 5872 5872 5873 5873 5874 5874 5875
5876 5876 5877 5878 5878 5879 5879 5879 5880 5880 5880 5881 5881 5881 5880 5880 5880 5880 5880 5879 5879 5878 5878 5877 5876 5876 5875 5874 5874 5873 5873 5872 5872 5871 5871 5871 5871 5871 5871 5871 5872 5872 5873
5874 5875 5876 5876 5877 5878 5878 5879 5879 5879 5879 5880 5880 5880 5880 5880 5880 5879 5879 5879 5878 5878 5877 5877 5876 5875 5875 5874 5873 5873 5872 5871 5871 5870 5870 5869 5870 5870 5869 5870 5870 5870 5871
5873 5874 5874 5875 5876 5877 5878 5878 5878 5878 5879 5879 5879 5879 5879 5879 5879 5879 5879 5878 5878 5877 5877 5876 5876 5875 5874 5874 5873 5872 5871 5871 5870 5870 5869 5869 5869 5868 5868 5868 5868 5868 5869
5871 5872 5873 5874 5875 5876 5877 5877 5877 5877 5878 5878 5878 5879 5879 5879 5878 5878 5878 5878 5877 5877 5876 5876 5875 5875 5874 5873 5873 5872 5871 5871 5870 5869 5869 5868 5868 5867 5867 5866 5866 5866 5866
5870 5871 5872 5873 5874 5875 5876 5876 5876 5877 5877 5878 5878 5878 5878 5878 5878 5878 5878 5877 5877 5877 5876 5876 5875 5875 5874 5873 5872 5872 5871 5870 5870 5869 5869 5868 5867 5867 5866 5865 5865 5864 5864
5869 5870 5871 5872 5873 5874 5875 5875 5876 5876 5877 5877 5877 5878 5878 5877 5877 5877 5877 5877 5877 5876 5876 5875 5875 5874 5874 5873 5872 5871 5871 5870 5869 5869 5868 5867 5866 5866 5865 5864 5863 5862 5862
5868 5869 5870 5871 5872 5873 5874 5874 5875 5875 5876 5876 5877 5877 5877 5877 5877 5877 5876 5876 5876 5876 5875 5875 5874 5874 5873 5872 5872 5871 5870 5870 5869 5868 5867 5866 5865 5865 5864 5863 5862 5861 5860
5867 5868 5869 5870 5871 5872 5872 5873 5874 5874 5875 5875 5876 5876 5876 5876 5876 5876 5875 5875 5875 5875 5875 5874 5874 5873 5872 5872 5871 5871 5870 5869 5869 5868 5867 5866 5865 5864 5863 5862 5861 5860 5859
5865 5866 5867 5868 5869 5870 5871 5872 5873 5873 5874 5874 5875 5875 5875 5875 5875 5875 5875 5874 5874 5874 5874 5873 5873 5872 5872 5871 5871 5870 5870 5869 5868 5867 5866 5865 5864 5863 5862 5861 5860 5858 5857
5864 5865 5866 5867 5868 5869 5870 5871 5871 5872 5872 5873 5873 5874 5874 5874 5874 5874 5874 5873 5873 5873 5873 5872 5872 5871 5871 5870 5870 5870 5869 5868 5867 5866 5865 5864 5863 5862 5861 5860 5859 5858 5856
5862 5863 5864 5865 5866 5867 5868 5869 5870 5871 5871 5871 5872 5872 5872 5872 5873 5873 5872 5872 5872 5872 5871 5871 5870 5870 5870 5869 5869 5868 5868 5867 5866 5865 5865 5864 5863 5861 5860 5859 5858 5856 5855
5860 5861 5862 5863 5864 5865 5866 5867 5868 5869 5869 5870 5870 5871 5871 5871 5871 5871 5871 5871 5871 5870 5870 5869 5869 5869 5868 5868 5868 5867 5866 5866 5865 5864 5863 5863 5862 5860 5859 5858 5857 5855 5853
5858 5859 5860 5861 5862 5863 5864 5865 5866 5867 5868 5868 5869 5869 5869 5870 5870 5870 5870 5869 5869 5869 5869 5868 5868 5868 5867 5867 5866 5866 5865 5864 5864 5863 5862 5861 5860 5859 5858 5857 5855 5854 5852